Time,TemperatureF,DewpointF,PressureIn,WindDirection,WindDirectionDegrees,WindSpeedMPH,WindSpeedGustMPH,Humidity,HourlyPrecipIn,Conditions,Clouds,dailyrainin,SoftwareType,DateUTC
2013-03-01 00:02:00,34.0,30.0,29.62,North,0,0.0,6.0,86,0.00,,,0.01,,2013-03-01 05:02:00,
2013-03-01 00:11:00,34.0,30.0,29.62,North,0,0.0,6.0,86,0.00,,,0.01,,2013-03-01 05:11:00,
2013-03-01 00:22:00,33.0,29.0,29.62,North,0,0.0,7.0,86,0.00,,,0.01,,2013-03-01 05:22:00,
2013-03-01 00:33:00,33.0,29.0,29.62,North,0,0.0,5.0,86,0.00,,,0.01,,2013-03-01 05:33:00,
2013-03-01 00:42:00,33.0,29.0,29.62,North,0,0.0,5.0,86,0.00,,,0.01,,2013-03-01 05:42:00,
2013-03-01 00:53:00,33.0,29.0,29.62,North,0,0.0,2.0,86,0.00,,,0.01,,2013-03-01 05:53:00,
2013-03-01 01:02:00,33.0,29.0,29.62,North,0,0.0,4.0,86,0.00,,,0.01,,2013-03-01 06:02:00,
2013-03-01 01:12:00,33.0,29.0,29.62,North,0,0.0,5.0,86,0.00,,,0.01,,2013-03-01 06:12:00,
2013-03-01 01:22:00,33.0,29.0,29.62,North,0,0.0,5.0,86,0.00,,,0.01,,2013-03-01 06:22:00,
2013-03-01 01:32:00,32.0,29.0,29.62,North,0,0.0,4.0,87,0.00,,,0.01,,2013-03-01 06:32:00,
2013-03-01 01:42:00,32.0,29.0,29.62,North,0,0.0,4.0,87,0.00,,,0.01,,2013-03-01 06:42:00,
2013-03-01 01:53:00,32.0,29.0,29.62,North,0,0.0,5.0,87,0.00,,,0.01,,2013-03-01 06:53:00,
2013-03-01 02:02:00,33.0,30.0,29.62,North,0,0.0,5.0,88,0.00,,,0.01,,2013-03-01 07:02:00,
2013-03-01 02:11:00,33.0,30.0,29.62,North,0,0.0,5.0,88,0.00,,,0.01,,2013-03-01 07:11:00,
2013-03-01 02:22:00,33.0,30.0,29.62,North,0,0.0,6.0,88,0.00,,,0.01,,2013-03-01 07:22:00,
2013-03-01 02:32:00,33.0,30.0,29.62,North,0,0.0,5.0,88,0.00,,,0.01,,2013-03-01 07:32:00,
2013-03-01 02:42:00,33.0,30.0,29.62,North,0,0.0,5.0,88,0.00,,,0.01,,2013-03-01 07:42:00,
2013-03-01 02:52:00,33.0,30.0,29.63,North,0,0.0,6.0,88,0.00,,,0.01,,2013-03-01 07:52:00,
2013-03-01 03:02:00,33.0,30.0,29.63,North,0,0.0,7.0,88,0.00,,,0.01,,2013-03-01 08:02:00,
2013-03-01 03:12:00,33.0,30.0,29.63,North,0,0.0,7.0,88,0.00,,,0.01,,2013-03-01 08:12:00,
2013-03-01 03:22:00,33.0,30.0,29.64,North,0,0.0,6.0,88,0.00,,,0.01,,2013-03-01 08:22:00,
2013-03-01 03:32:00,33.0,30.0,29.64,North,0,0.0,5.0,88,0.00,,,0.01,,2013-03-01 08:32:00,
2013-03-01 03:42:00,33.0,30.0,29.64,North,0,0.0,5.0,88,0.00,,,0.01,,2013-03-01 08:42:00,
2013-03-01 03:53:00,33.0,30.0,29.64,North,0,0.0,4.0,88,0.00,,,0.01,,2013-03-01 08:53:00,
2013-03-01 04:02:00,33.0,30.0,29.64,North,9,1.0,6.0,88,0.00,,,0.01,,2013-03-01 09:02:00,
2013-03-01 04:12:00,33.0,30.0,29.64,North,9,1.0,6.0,88,0.00,,,0.01,,2013-03-01 09:12:00,
2013-03-01 04:22:00,34.0,31.0,29.65,North,0,0.0,4.0,88,0.00,,,0.01,,2013-03-01 09:22:00,
2013-03-01 04:32:00,34.0,31.0,29.65,North,0,0.0,2.0,88,0.00,,,0.01,,2013-03-01 09:32:00,
2013-03-01 04:42:00,34.0,31.0,29.65,North,0,0.0,2.0,88,0.00,,,0.01,,2013-03-01 09:42:00,
2013-03-01 04:53:00,34.0,31.0,29.65,North,0,0.0,6.0,88,0.00,,,0.01,,2013-03-01 09:53:00,
2013-03-01 05:02:00,34.0,31.0,29.66,North,0,0.0,7.0,87,0.00,,,0.01,,2013-03-01 10:02:00,
2013-03-01 05:11:00,34.0,30.0,29.66,North,0,0.0,5.0,86,0.00,,,0.01,,2013-03-01 10:11:00,
2013-03-01 05:22:00,34.0,30.0,29.66,North,0,0.0,5.0,86,0.00,,,0.01,,2013-03-01 10:22:00,
2013-03-01 05:32:00,34.0,30.0,29.66,North,0,0.0,4.0,86,0.00,,,0.01,,2013-03-01 10:32:00,
2013-03-01 05:42:00,34.0,30.0,29.66,North,0,0.0,4.0,86,0.00,,,0.01,,2013-03-01 10:42:00,
2013-03-01 05:53:00,34.0,30.0,29.66,North,0,0.0,5.0,85,0.00,,,0.01,,2013-03-01 10:53:00,
2013-03-01 06:01:00,34.0,30.0,29.66,North,0,0.0,4.0,85,0.00,,,0.01,,2013-03-01 11:01:00,
2013-03-01 06:11:00,34.0,30.0,29.66,North,0,0.0,4.0,85,0.00,,,0.01,,2013-03-01 11:11:00,
2013-03-01 06:22:00,34.0,30.0,29.66,North,0,0.0,4.0,85,0.00,,,0.01,,2013-03-01 11:22:00,
2013-03-01 06:32:00,34.0,30.0,29.66,North,0,0.0,4.0,85,0.00,,,0.01,,2013-03-01 11:32:00,
2013-03-01 06:42:00,34.0,30.0,29.66,North,0,0.0,4.0,85,0.00,,,0.01,,2013-03-01 11:42:00,
2013-03-01 06:52:00,34.0,30.0,29.66,North,0,0.0,7.0,86,0.00,,,0.01,,2013-03-01 11:52:00,
2013-03-01 07:02:00,34.0,30.0,29.66,North,0,0.0,9.0,85,0.00,,,0.00,,2013-03-01 12:02:00,
2013-03-01 07:11:00,34.0,30.0,29.66,North,0,0.0,9.0,85,0.00,,,0.00,,2013-03-01 12:11:00,
2013-03-01 07:21:00,34.0,30.0,29.67,North,357,2.0,11.0,85,0.00,,,0.00,,2013-03-01 12:21:00,
2013-03-01 07:32:00,35.0,31.0,29.67,North,0,0.0,9.0,85,0.00,,,0.00,,2013-03-01 12:32:00,
2013-03-01 07:42:00,35.0,31.0,29.67,North,0,0.0,9.0,85,0.00,,,0.00,,2013-03-01 12:42:00,
2013-03-01 07:52:00,35.0,31.0,29.68,North,0,0.0,7.0,84,0.00,,,0.00,,2013-03-01 12:52:00,
2013-03-01 08:01:00,36.0,32.0,29.69,NNE,12,1.0,5.0,84,0.00,,,0.00,,2013-03-01 13:01:00,
2013-03-01 08:11:00,36.0,31.0,29.70,North,0,0.0,4.0,83,0.00,,,0.00,,2013-03-01 13:11:00,
2013-03-01 08:22:00,36.0,31.0,29.70,North,0,0.0,4.0,83,0.00,,,0.00,,2013-03-01 13:22:00,
2013-03-01 08:32:00,37.0,32.0,29.70,NNW,343,1.0,5.0,82,0.00,,,0.00,,2013-03-01 13:32:00,
2013-03-01 08:42:00,37.0,32.0,29.70,NNW,343,1.0,5.0,82,0.00,,,0.00,,2013-03-01 13:42:00,
2013-03-01 08:52:00,39.0,33.0,29.70,North,351,1.0,7.0,80,0.00,,,0.00,,2013-03-01 13:52:00,
2013-03-01 09:01:00,40.0,33.0,29.70,North,0,0.0,7.0,77,0.00,,,0.00,,2013-03-01 14:01:00,
2013-03-01 09:11:00,40.0,33.0,29.70,North,0,0.0,7.0,77,0.00,,,0.00,,2013-03-01 14:11:00,
2013-03-01 09:21:00,42.0,34.0,29.70,North,1,1.0,5.0,74,0.00,,,0.00,,2013-03-01 14:21:00,
2013-03-01 09:32:00,41.0,33.0,29.71,North,0,0.0,9.0,73,0.00,,,0.00,,2013-03-01 14:32:00,
2013-03-01 09:42:00,41.0,33.0,29.71,North,0,0.0,9.0,73,0.00,,,0.00,,2013-03-01 14:42:00,
2013-03-01 09:52:00,40.0,32.0,29.71,NNE,24,1.0,7.0,74,0.00,,,0.00,,2013-03-01 14:52:00,
2013-03-01 10:02:00,40.0,32.0,29.72,NNE,26,1.0,6.0,74,0.00,,,0.00,,2013-03-01 15:02:00,
2013-03-01 10:11:00,40.0,32.0,29.72,North,0,0.0,6.0,73,0.00,,,0.00,,2013-03-01 15:11:00,
2013-03-01 10:21:00,40.0,32.0,29.72,North,0,0.0,6.0,73,0.00,,,0.00,,2013-03-01 15:21:00,
2013-03-01 10:32:00,40.0,32.0,29.72,North,0,0.0,7.0,73,0.00,,,0.00,,2013-03-01 15:32:00,
2013-03-01 10:42:00,40.0,32.0,29.72,North,0,0.0,7.0,73,0.00,,,0.00,,2013-03-01 15:42:00,
2013-03-01 10:52:00,40.0,32.0,29.71,North,10,1.0,7.0,73,0.00,,,0.00,,2013-03-01 15:52:00,
2013-03-01 11:01:00,40.0,32.0,29.71,North,0,0.0,5.0,72,0.00,,,0.00,,2013-03-01 16:01:00,
2013-03-01 11:11:00,40.0,32.0,29.71,North,0,0.0,5.0,72,0.00,,,0.00,,2013-03-01 16:11:00,
2013-03-01 11:21:00,40.0,32.0,29.71,NNW,345,1.0,7.0,73,0.00,,,0.00,,2013-03-01 16:21:00,
2013-03-01 11:32:00,40.0,32.0,29.72,North,0,0.0,10.0,73,0.00,,,0.00,,2013-03-01 16:32:00,
2013-03-01 11:42:00,40.0,32.0,29.72,North,0,0.0,10.0,73,0.00,,,0.00,,2013-03-01 16:42:00,
2013-03-01 11:52:00,40.0,31.0,29.71,North,0,0.0,3.0,70,0.00,,,0.00,,2013-03-01 16:52:00,
2013-03-01 12:01:00,40.0,31.0,29.72,North,0,0.0,11.0,70,0.00,,,0.00,,2013-03-01 17:01:00,
2013-03-01 12:11:00,40.0,31.0,29.72,ENE,62,1.0,6.0,71,0.00,,,0.00,,2013-03-01 17:11:00,
2013-03-01 12:21:00,40.0,31.0,29.72,ENE,62,1.0,6.0,71,0.00,,,0.00,,2013-03-01 17:21:00,
2013-03-01 12:32:00,40.0,31.0,29.71,North,0,0.0,5.0,71,0.00,,,0.00,,2013-03-01 17:32:00,
2013-03-01 12:42:00,40.0,32.0,29.71,North,7,1.0,7.0,73,0.00,,,0.00,,2013-03-01 17:42:00,
2013-03-01 12:52:00,40.0,32.0,29.71,North,7,1.0,7.0,73,0.00,,,0.00,,2013-03-01 17:52:00,
2013-03-01 13:01:00,40.0,32.0,29.71,North,0,0.0,5.0,72,0.00,,,0.00,,2013-03-01 18:01:00,
2013-03-01 13:12:00,40.0,32.0,29.71,North,0,0.0,5.0,72,0.00,,,0.00,,2013-03-01 18:12:00,
2013-03-01 13:22:00,42.0,33.0,29.71,NNE,21,1.0,7.0,70,0.00,,,0.00,,2013-03-01 18:22:00,
2013-03-01 13:32:00,41.0,31.0,29.71,North,0,0.0,10.0,68,0.00,,,0.00,,2013-03-01 18:32:00,
2013-03-01 13:42:00,41.0,32.0,29.70,NNE,18,1.0,9.0,69,0.00,,,0.00,,2013-03-01 18:42:00,
2013-03-01 13:52:00,41.0,32.0,29.70,NNE,18,1.0,9.0,69,0.00,,,0.00,,2013-03-01 18:52:00,
2013-03-01 14:01:00,41.0,31.0,29.70,North,0,0.0,5.0,68,0.00,,,0.00,,2013-03-01 19:01:00,
2013-03-01 14:11:00,41.0,31.0,29.70,North,0,0.0,5.0,68,0.00,,,0.00,,2013-03-01 19:11:00,
2013-03-01 14:21:00,41.0,31.0,29.71,North,0,0.0,10.0,67,0.00,,,0.00,,2013-03-01 19:21:00,
2013-03-01 14:32:00,41.0,31.0,29.71,NNW,348,1.0,11.0,67,0.00,,,0.00,,2013-03-01 19:32:00,
2013-03-01 14:42:00,41.0,31.0,29.71,NNW,348,1.0,11.0,67,0.00,,,0.00,,2013-03-01 19:42:00,
2013-03-01 14:52:00,41.0,32.0,29.71,NNE,22,1.0,9.0,69,0.00,,,0.00,,2013-03-01 19:52:00,
2013-03-01 15:01:00,42.0,32.0,29.71,North,0,0.0,9.0,68,0.00,,,0.00,,2013-03-01 20:01:00,
2013-03-01 15:11:00,42.0,32.0,29.71,North,0,0.0,9.0,68,0.00,,,0.00,,2013-03-01 20:11:00,
2013-03-01 15:21:00,41.0,31.0,29.71,North,0,0.0,7.0,67,0.00,,,0.00,,2013-03-01 20:21:00,
2013-03-01 15:32:00,41.0,31.0,29.71,North,0,0.0,5.0,68,0.00,,,0.00,,2013-03-01 20:32:00,
2013-03-01 15:42:00,41.0,31.0,29.71,North,0,0.0,5.0,68,0.00,,,0.00,,2013-03-01 20:42:00,
2013-03-01 15:52:00,41.0,31.0,29.71,North,0,0.0,6.0,68,0.00,,,0.00,,2013-03-01 20:52:00,
2013-03-01 16:01:00,41.0,31.0,29.71,North,0,0.0,9.0,68,0.00,,,0.00,,2013-03-01 21:01:00,
2013-03-01 16:11:00,41.0,31.0,29.71,North,0,0.0,9.0,67,0.00,,,0.00,,2013-03-01 21:11:00,
2013-03-01 16:21:00,41.0,31.0,29.71,North,0,0.0,9.0,67,0.00,,,0.00,,2013-03-01 21:21:00,
2013-03-01 16:32:00,41.0,31.0,29.72,North,0,0.0,11.0,67,0.00,,,0.00,,2013-03-01 21:32:00,
2013-03-01 16:42:00,41.0,30.0,29.71,North,0,0.0,5.0,65,0.00,,,0.00,,2013-03-01 21:42:00,
2013-03-01 16:52:00,41.0,30.0,29.71,North,0,0.0,5.0,65,0.00,,,0.00,,2013-03-01 21:52:00,
2013-03-01 17:01:00,40.0,30.0,29.72,North,0,0.0,7.0,66,0.00,,,0.00,,2013-03-01 22:01:00,
2013-03-01 17:11:00,40.0,29.0,29.72,NNE,22,1.0,7.0,65,0.00,,,0.00,,2013-03-01 22:11:00,
2013-03-01 17:21:00,40.0,29.0,29.72,NNE,22,1.0,7.0,65,0.00,,,0.00,,2013-03-01 22:21:00,
2013-03-01 17:32:00,40.0,30.0,29.72,North,0,0.0,12.0,66,0.00,,,0.00,,2013-03-01 22:32:00,
2013-03-01 17:42:00,40.0,30.0,29.72,North,0,0.0,12.0,66,0.00,,,0.00,,2013-03-01 22:42:00,
2013-03-01 17:52:00,39.0,29.0,29.73,North,6,1.0,6.0,66,0.00,,,0.00,,2013-03-01 22:52:00,
2013-03-01 18:01:00,39.0,29.0,29.73,North,0,0.0,5.0,67,0.00,,,0.00,,2013-03-01 23:01:00,
2013-03-01 18:11:00,39.0,29.0,29.73,North,0,0.0,5.0,67,0.00,,,0.00,,2013-03-01 23:11:00,
2013-03-01 18:21:00,39.0,29.0,29.74,North,0,0.0,6.0,67,0.00,,,0.00,,2013-03-01 23:21:00,
2013-03-01 18:32:00,38.0,28.0,29.74,North,0,0.0,6.0,67,0.00,,,0.00,,2013-03-01 23:32:00,
2013-03-01 18:41:00,38.0,28.0,29.74,North,0,0.0,6.0,67,0.00,,,0.00,,2013-03-01 23:41:00,
2013-03-01 18:52:00,38.0,28.0,29.75,North,0,0.0,4.0,68,0.00,,,0.00,,2013-03-01 23:52:00,
2013-03-01 19:02:00,38.0,28.0,29.75,NNE,17,1.0,9.0,68,0.00,,,0.00,,2013-03-02 00:02:00,
2013-03-01 19:12:00,38.0,28.0,29.75,NNE,17,1.0,9.0,68,0.00,,,0.00,,2013-03-02 00:12:00,
2013-03-01 19:22:00,38.0,28.0,29.75,North,4,1.0,5.0,68,0.00,,,0.00,,2013-03-02 00:22:00,
2013-03-01 19:32:00,38.0,29.0,29.76,North,0,0.0,6.0,69,0.00,,,0.00,,2013-03-02 00:32:00,
2013-03-01 19:42:00,38.0,29.0,29.76,North,0,0.0,5.0,69,0.00,,,0.00,,2013-03-02 00:42:00,
2013-03-01 19:52:00,38.0,29.0,29.76,North,0,0.0,5.0,69,0.00,,,0.00,,2013-03-02 00:52:00,
2013-03-01 20:01:00,37.0,28.0,29.76,North,0,0.0,4.0,70,0.00,,,0.00,,2013-03-02 01:01:00,
2013-03-01 20:11:00,37.0,28.0,29.76,North,0,0.0,4.0,70,0.00,,,0.00,,2013-03-02 01:11:00,
2013-03-01 20:21:00,37.0,28.0,29.76,North,0,0.0,4.0,70,0.00,,,0.00,,2013-03-02 01:21:00,
2013-03-01 20:32:00,37.0,28.0,29.76,North,0,0.0,7.0,70,0.00,,,0.00,,2013-03-02 01:32:00,
2013-03-01 20:41:00,37.0,28.0,29.76,North,0,0.0,7.0,70,0.00,,,0.00,,2013-03-02 01:41:00,
2013-03-01 20:52:00,37.0,28.0,29.77,North,0,0.0,5.0,70,0.00,,,0.00,,2013-03-02 01:52:00,
2013-03-01 21:01:00,37.0,28.0,29.77,North,0,0.0,4.0,71,0.00,,,0.00,,2013-03-02 02:01:00,
2013-03-01 21:11:00,37.0,28.0,29.77,North,0,0.0,4.0,71,0.00,,,0.00,,2013-03-02 02:11:00,
2013-03-01 21:22:00,36.0,28.0,29.78,North,0,0.0,2.0,71,0.00,,,0.00,,2013-03-02 02:22:00,
2013-03-01 21:32:00,36.0,28.0,29.78,North,0,0.0,5.0,72,0.00,,,0.00,,2013-03-02 02:32:00,
2013-03-01 21:42:00,36.0,28.0,29.78,North,0,0.0,5.0,72,0.00,,,0.00,,2013-03-02 02:42:00,
2013-03-01 21:52:00,36.0,28.0,29.78,North,0,0.0,4.0,72,0.00,,,0.00,,2013-03-02 02:52:00,
2013-03-01 22:02:00,35.0,27.0,29.79,North,0,0.0,3.0,72,0.00,,,0.00,,2013-03-02 03:02:00,
2013-03-01 22:11:00,35.0,27.0,29.79,North,0,0.0,3.0,72,0.00,,,0.00,,2013-03-02 03:11:00,
2013-03-01 22:22:00,35.0,27.0,29.79,North,0,0.0,6.0,73,0.00,,,0.00,,2013-03-02 03:22:00,
2013-03-01 22:32:00,34.0,26.0,29.78,North,0,0.0,1.0,73,0.00,,,0.00,,2013-03-02 03:32:00,
2013-03-01 22:42:00,34.0,26.0,29.78,North,0,0.0,1.0,73,0.00,,,0.00,,2013-03-02 03:42:00,
2013-03-01 22:52:00,34.0,27.0,29.78,North,0,0.0,9.0,74,0.00,,,0.00,,2013-03-02 03:52:00,
2013-03-01 23:01:00,33.0,26.0,29.78,North,0,0.0,1.0,74,0.00,,,0.00,,2013-03-02 04:01:00,
2013-03-01 23:11:00,33.0,26.0,29.78,North,0,0.0,2.0,75,0.00,,,0.00,,2013-03-02 04:11:00,
2013-03-01 23:22:00,33.0,26.0,29.78,North,0,0.0,2.0,75,0.00,,,0.00,,2013-03-02 04:22:00,
2013-03-01 23:32:00,32.0,25.0,29.78,North,0,0.0,3.0,75,0.00,,,0.00,,2013-03-02 04:32:00,
2013-03-01 23:42:00,32.0,25.0,29.78,North,0,0.0,3.0,75,0.00,,,0.00,,2013-03-02 04:42:00,
2013-03-01 23:52:00,32.0,25.0,29.78,North,0,0.0,1.0,75,0.00,,,0.00,,2013-03-02 04:52:00,